Total_Precipitation_Accumulation
0.00 0.01 0.01 0.02 0.02 0.03 0.07 0.09 0.19 0.25 0.19 0.20 0.36 0.55 0.69 0.81 1.05 1.18 1.20 1.15 1.18 1.46 1.88 2.10 2.41 2.89 3.67 4.41 5.09 5.20 5.42 4.90 4.25 3.67 3.24 3.14 2.95 2.64 2.55 2.45 2.27 2.12 1.91 1.78
0.02 0.04 0.03 0.02 0.03 0.05 0.09 0.12 0.20 0.22 0.15 0.18 0.36 0.63 0.83 0.92 0.91 0.99 1.02 1.07 1.18 1.54 1.97 2.34 2.88 3.26 3.27 3.79 4.51 4.57 4.25 4.00 3.53 3.12 2.92 2.76 2.68 2.38 2.21 2.08 2.06 1.86 1.72 1.68
0.04 0.05 0.03 0.03 0.05 0.10 0.12 0.14 0.18 0.17 0.16 0.23 0.42 0.80 1.10 1.05 0.80 0.72 0.78 0.86 1.01 1.35 1.86 2.30 2.71 3.13 3.09 3.45 3.55 3.19 3.01 3.06 2.97 2.78 2.66 2.54 2.50 2.31 2.05 1.86 1.84 1.70 1.49 1.47
0.03 0.03 0.03 0.04 0.06 0.07 0.08 0.08 0.07 0.07 0.14 0.30 0.44 0.99 1.40 1.18 0.90 0.75 0.78 0.96 1.02 1.13 1.33 1.61 1.95 2.36 2.55 2.63 2.56 2.51 2.47 2.48 2.64 2.64 2.40 2.21 1.92 1.79 1.72 1.60 1.64 1.65 1.44 1.35
0.03 0.03 0.03 0.04 0.05 0.05 0.05 0.04 0.05 0.08 0.13 0.27 0.48 0.83 1.24 1.22 1.18 1.02 0.89 0.95 0.90 0.93 0.99 1.14 1.26 1.46 1.74 1.99 2.04 2.01 2.26 2.36 2.36 2.33 2.28 2.25 1.99 1.80 1.72 1.82 2.01 1.90 1.61 1.33
0.05 0.05 0.04 0.03 0.04 0.04 0.04 0.05 0.12 0.25 0.37 0.70 0.69 0.74 1.10 1.06 1.02 1.02 0.87 0.73 0.69 0.71 0.75 0.93 0.99 1.04 1.17 1.32 1.43 1.53 1.78 2.00 2.06 2.02 2.02 2.05 2.04 1.97 1.76 1.70 1.74 1.65 1.51 1.33
0.14 0.12 0.09 0.05 0.05 0.05 0.05 0.09 0.32 0.69 1.01 1.18 0.73 0.71 0.93 0.81 0.82 0.90 0.71 0.49 0.44 0.52 0.55 0.66 0.73 0.81 0.92 0.95 1.02 1.18 1.37 1.54 1.67 1.75 1.79 1.85 2.03 1.93 1.70 1.50 1.51 1.47 1.31 1.18
0.15 0.18 0.10 0.05 0.05 0.06 0.06 0.07 0.19 0.34 0.50 0.71 0.75 1.11 1.05 0.68 0.63 0.56 0.40 0.31 0.28 0.43 0.47 0.45 0.50 0.56 0.71 0.77 0.84 0.97 1.05 1.13 1.27 1.52 1.74 1.70 1.78 1.62 1.48 1.59 1.50 1.35 1.15 1.14
0.07 0.06 0.05 0.05 0.05 0.07 0.05 0.05 0.06 0.10 0.16 0.45 0.84 1.20 0.99 0.58 0.54 0.41 0.28 0.23 0.27 0.34 0.45 0.40 0.39 0.43 0.47 0.53 0.61 0.72 0.93 1.07 1.12 1.23 1.46 1.55 1.51 1.48 1.54 1.65 1.57 1.44 1.35 1.22
0.04 0.02 0.04 0.05 0.05 0.07 0.06 0.06 0.06 0.08 0.15 0.34 0.71 1.07 1.13 0.87 0.64 0.43 0.33 0.33 0.41 0.39 0.47 0.52 0.39 0.38 0.41 0.41 0.50 0.61 0.78 0.99 1.18 1.18 1.17 1.21 1.43 1.49 1.57 1.58 1.44 1.40 1.33 1.29
0.04 0.02 0.03 0.04 0.06 0.08 0.08 0.08 0.09 0.10 0.13 0.22 0.54 0.79 0.70 0.69 0.52 0.42 0.43 0.51 0.40 0.38 0.45 0.48 0.36 0.31 0.35 0.39 0.46 0.59 0.73 0.99 1.18 1.09 1.10 1.21 1.38 1.46 1.48 1.59 1.55 1.44 1.35 1.32
0.05 0.03 0.04 0.08 0.11 0.10 0.10 0.10 0.11 0.14 0.16 0.17 0.28 0.50 0.43 0.50 0.48 0.56 0.61 0.57 0.49 0.48 0.46 0.49 0.43 0.45 0.47 0.51 0.56 0.66 0.75 0.88 1.00 1.05 1.13 1.19 1.30 1.37 1.37 1.40 1.45 1.49 1.40 1.33
0.06 0.05 0.07 0.21 0.31 0.22 0.14 0.10 0.11 0.13 0.13 0.16 0.31 0.51 0.44 0.48 0.50 0.56 0.59 0.54 0.61 0.64 0.58 0.56 0.59 0.65 0.60 0.58 0.69 0.77 0.84 0.86 0.97 1.14 1.15 1.11 1.18 1.16 1.18 1.23 1.27 1.35 1.40 1.42
0.07 0.06 0.08 0.22 0.33 0.35 0.26 0.17 0.16 0.13 0.14 0.17 0.24 0.45 0.44 0.56 0.70 0.62 0.67 0.62 0.57 0.59 0.56 0.50 0.53 0.56 0.59 0.62 0.68 0.77 0.84 0.88 0.97 0.99 1.01 1.03 1.03 1.06 1.15 1.22 1.24 1.27 1.27 1.36
0.09 0.07 0.05 0.09 0.17 0.20 0.21 0.20 0.18 0.13 0.12 0.17 0.22 0.35 0.50 0.60 0.73 0.67 0.65 0.71 0.73 0.60 0.53 0.43 0.39 0.49 0.61 0.68 0.69 0.74 0.82 0.90 1.03 1.04 1.01 1.01 1.03 1.05 1.08 1.12 1.12 1.14 1.20 1.23
0.15 0.11 0.10 0.11 0.14 0.14 0.16 0.18 0.15 0.11 0.09 0.10 0.18 0.36 0.52 0.66 0.68 0.64 0.55 0.53 0.68 0.62 0.53 0.51 0.48 0.56 0.61 0.62 0.62 0.61 0.64 0.76 0.94 1.00 1.06 1.09 1.09 1.03 1.06 1.08 1.06 1.08 1.17 1.29
0.28 0.22 0.21 0.21 0.17 0.18 0.25 0.20 0.17 0.14 0.12 0.13 0.23 0.37 0.53 0.67 0.60 0.63 0.59 0.50 0.51 0.50 0.48 0.54 0.57 0.61 0.60 0.59 0.56 0.55 0.56 0.68 0.96 1.05 1.03 1.12 1.20 1.12 1.18 1.21 1.19 1.21 1.27 1.37
0.38 0.39 0.31 0.28 0.31 0.38 0.29 0.23 0.22 0.24 0.25 0.23 0.27 0.38 0.60 0.77 0.67 0.60 0.59 0.57 0.53 0.43 0.45 0.53 0.54 0.55 0.57 0.57 0.56 0.54 0.56 0.64 0.87 1.04 1.08 1.26 1.40 1.31 1.31 1.33 1.34 1.40 1.46 1.50
0.39 0.47 0.47 0.42 0.44 0.46 0.38 0.34 0.36 0.44 0.54 0.45 0.46 0.59 0.64 0.63 0.63 0.63 0.56 0.51 0.50 0.50 0.54 0.54 0.57 0.58 0.64 0.68 0.66 0.64 0.74 0.86 0.98 1.11 1.22 1.42 1.57 1.62 1.59 1.55 1.64 1.68 1.71 1.75
0.35 0.45 0.55 0.57 0.64 0.73 0.66 0.53 0.48 0.61 0.96 0.79 0.64 0.66 0.68 0.68 0.84 0.81 0.57 0.51 0.51 0.54 0.60 0.64 0.71 0.71 0.71 0.78 0.78 0.80 0.90 1.08 1.21 1.25 1.28 1.40 1.56 1.64 1.66 1.67 1.82 1.97 2.00 2.00
0.53 0.54 0.57 0.64 0.74 0.74 0.66 0.59 0.62 1.08 1.42 1.01 0.86 0.88 0.92 0.91 0.87 0.73 0.62 0.65 0.59 0.53 0.56 0.59 0.63 0.70 0.74 0.80 0.87 0.98 1.06 1.17 1.20 1.21 1.23 1.32 1.53 1.78 1.81 1.87 1.95 2.06 2.13 2.18
0.71 0.72 0.70 0.75 0.98 1.08 0.71 0.63 0.97 1.30 1.21 1.23 1.19 1.17 1.11 0.97 0.78 0.66 0.62 0.67 0.61 0.58 0.61 0.62 0.61 0.68 0.75 0.87 1.02 1.10 1.13 1.16 1.22 1.24 1.27 1.37 1.61 1.71 1.80 1.96 2.01 2.16 2.28 2.29
0.80 0.90 0.89 0.98 1.18 1.09 0.85 0.92 0.96 1.01 1.14 1.20 1.14 1.14 1.11 1.05 0.91 0.78 0.72 0.69 0.67 0.67 0.68 0.73 0.72 0.74 0.80 0.92 1.12 1.24 1.24 1.24 1.23 1.21 1.24 1.33 1.46 1.55 1.68 1.76 1.74 1.83 1.97 1.99
0.93 0.82 1.02 1.36 1.36 1.18 1.00 0.92 0.92 0.88 0.95 0.96 0.93 0.89 0.86 0.87 0.83 0.76 0.72 0.75 0.78 0.82 0.78 0.79 0.79 0.81 0.84 0.90 1.07 1.20 1.19 1.20 1.21 1.16 1.13 1.22 1.38 1.45 1.53 1.64 1.65 1.74 1.81 1.87
1.17 1.10 1.29 1.67 1.64 1.42 1.30 1.13 1.10 0.97 0.93 0.91 0.87 0.83 0.76 0.67 0.66 0.65 0.60 0.57 0.61 0.67 0.70 0.70 0.71 0.76 0.78 0.83 1.00 1.15 1.16 1.18 1.22 1.18 1.13 1.21 1.32 1.41 1.47 1.58 1.66 1.68 1.71 1.69
1.08 1.24 1.51 1.74 1.59 1.48 1.48 1.20 1.16 1.21 1.06 0.90 0.87 0.80 0.73 0.64 0.58 0.57 0.56 0.53 0.53 0.59 0.66 0.69 0.72 0.71 0.68 0.73 0.87 0.97 1.14 1.28 1.34 1.25 1.16 1.14 1.15 1.24 1.31 1.39 1.38 1.31 1.28 1.26